TimeCST,TemperatureF,Dew PointF,Humidity,Sea Level PressureIn,VisibilityMPH,Wind Direction,Wind SpeedMPH,Gust SpeedMPH,PrecipitationIn,Events,Conditions,WindDirDegrees,DateUTC
12:54 AM,26.1,19.0,75,29.86,10.0,North,12.7,-,N/A,,Overcast,360,2012-01-17 06:54:00
1:54 AM,26.1,18.0,71,29.85,10.0,North,11.5,18.4,N/A,,Overcast,10,2012-01-17 07:54:00
2:54 AM,26.1,18.0,71,29.84,10.0,North,9.2,-,N/A,,Overcast,360,2012-01-17 08:54:00
4:54 AM,25.0,17.1,72,29.86,10.0,North,10.4,-,N/A,,Overcast,350,2012-01-17 10:54:00
5:54 AM,24.1,16.0,71,29.86,10.0,North,11.5,-,N/A,,Overcast,360,2012-01-17 11:54:00
6:54 AM,24.1,16.0,71,29.86,10.0,North,12.7,21.9,N/A,,Overcast,350,2012-01-17 12:54:00
7:15 AM,21.2,17.6,86,29.81,1.8,North,13.8,-,0.00,Snow,Light Snow,350,2012-01-17 13:15:00
7:54 AM,21.9,17.1,82,29.89,1.2,North,15.0,20.7,0.00,Snow,Light Snow,350,2012-01-17 13:54:00
8:18 AM,21.2,15.8,80,29.85,1.0,North,15.0,21.9,0.00,Snow,Light Snow,350,2012-01-17 14:18:00
8:38 AM,21.2,15.8,80,29.87,0.8,North,17.3,25.3,0.00,Snow,Light Snow,350,2012-01-17 14:38:00
8:54 AM,21.0,16.0,81,29.94,0.8,North,15.0,-,0.00,Snow,Light Snow,350,2012-01-17 14:54:00
9:19 AM,19.4,15.8,86,29.88,0.5,NNW,15.0,-,0.00,Fog-Snow,Light Snow,340,2012-01-17 15:19:00
9:31 AM,19.4,15.8,86,29.88,0.8,North,13.8,21.9,0.00,Snow,Light Snow,350,2012-01-17 15:31:00
9:54 AM,19.9,15.1,81,29.95,0.8,NNW,15.0,-,0.00,Snow,Light Snow,330,2012-01-17 15:54:00
10:11 AM,19.4,12.2,74,29.90,1.2,NNW,18.4,27.6,0.00,Snow,Light Snow,340,2012-01-17 16:11:00
10:54 AM,19.0,12.9,77,29.98,1.5,NNW,18.4,-,0.00,Snow,Light Snow,330,2012-01-17 16:54:00
11:03 AM,19.4,12.2,74,29.92,2.0,NNW,19.6,-,0.00,Snow,Light Snow,330,2012-01-17 17:03:00
11:32 AM,17.6,12.2,79,29.92,1.5,NNW,18.4,26.5,0.00,Snow,Light Snow,330,2012-01-17 17:32:00
11:54 AM,18.0,12.0,78,29.99,2.0,NW,19.6,-,0.00,Snow,Light Snow,320,2012-01-17 17:54:00
12:04 PM,17.6,12.2,79,29.92,1.8,NNW,18.4,-,0.00,Snow,Light Snow,330,2012-01-17 18:04:00
12:09 PM,17.6,12.2,79,29.92,2.0,NNW,18.4,-,0.00,Snow,Light Snow,330,2012-01-17 18:09:00
12:31 PM,17.6,10.4,73,29.92,2.5,NW,18.4,-,0.00,Snow,Light Snow,320,2012-01-17 18:31:00
12:51 PM,17.6,10.4,73,29.92,1.8,NW,19.6,-,0.00,Snow,Light Snow,320,2012-01-17 18:51:00
12:54 PM,18.0,10.9,74,29.99,1.8,NW,18.4,-,0.00,Snow,Light Snow,320,2012-01-17 18:54:00
1:03 PM,17.6,10.4,73,29.93,2.5,NW,17.3,-,0.00,Snow,Light Snow,320,2012-01-17 19:03:00
1:12 PM,17.6,10.4,73,29.93,6.0,NW,18.4,-,0.00,Snow,Light Snow,320,2012-01-17 19:12:00
2:50 PM,15.8,6.8,68,29.98,10.0,NW,21.9,27.6,0.00,,Scattered Clouds,310,2012-01-17 20:50:00
2:54 PM,16.0,7.0,68,30.05,10.0,NW,20.7,-,0.00,,Mostly Cloudy,310,2012-01-17 20:54:00
3:25 PM,15.8,6.8,68,30.01,10.0,NNW,20.7,-,N/A,,Mostly Cloudy,330,2012-01-17 21:25:00
3:54 PM,15.1,7.0,70,30.09,4.0,NW,13.8,-,0.00,Snow,Light Snow,320,2012-01-17 21:54:00
4:42 PM,12.2,3.2,67,30.05,10.0,WNW,15.0,-,0.00,,Scattered Clouds,300,2012-01-17 22:42:00
4:54 PM,12.0,3.0,67,30.13,10.0,WNW,12.7,-,0.00,,Clear,300,2012-01-17 22:54:00
5:54 PM,10.0,-0.0,64,30.16,10.0,WNW,12.7,-,N/A,,Clear,300,2012-01-17 23:54:00
6:54 PM,9.0,-0.9,64,30.19,10.0,WNW,10.4,-,N/A,,Clear,300,2012-01-18 00:54:00
7:54 PM,8.1,-2.0,64,30.21,10.0,WNW,9.2,-,N/A,,Clear,300,2012-01-18 01:54:00
8:54 PM,6.1,-2.9,67,30.22,10.0,WNW,8.1,-,N/A,,Clear,300,2012-01-18 02:54:00
9:54 PM,5.0,-4.0,66,30.25,10.0,WNW,8.1,-,N/A,,Clear,300,2012-01-18 03:54:00
10:54 PM,3.0,-5.1,69,30.25,10.0,WNW,5.8,-,N/A,,Clear,300,2012-01-18 04:54:00
11:54 PM,1.0,-6.0,72,30.26,10.0,West,3.5,-,N/A,,Clear,270,2012-01-18 05:54:00